Location: Potomac
(46.8816°N, 113.5795°W)
Time: 02:21:25
(UTC+00:00)

BEESAT 2 - Visible Passes

Search period start: 26 June 2022 00:00
Search period end: 06 July 2022 00:00
Orbit: 485 x 508 km, 64.9° (Epoch: 25 June)

Date Brightness Start Highest point End Pass type
(mag) Time Alt. Az. Time Alt. Az. Time Alt. Az.
26 Jun ? 04:39:13 10° NW 04:43:04 64° WSW 04:46:24 13° SSE visible
27 Jun ? 04:17:23 10° NW 04:21:15 73° SW 04:25:04 10° SSE visible
30 Jun ? 04:51:06 10° W 04:52:18 11° WSW 04:53:29 10° SW visible
01 Jul ? 04:28:44 10° W 04:30:28 13° WSW 04:32:12 10° SW visible
